QZS-1 (MICHIBIKI)

Last updated on Tue Dec 18 2018 00:08:27 GMT+0000 (Coordinated Universal Time)

1 37158U 10045A 18351.77907994 -.00000060 00000-0 00000+0 0 9990 2 37158 41.1964 151.4039 0751178 270.4413 80.9265 1.00275521 30257
UTC large
Height (km)
Speed (km/s)
/
Latitude / Longitude
Inclination (degrees)
Orbital Period (minutes)
Azimuth
Elevation
Range (km)
Doppler Factor

Next 0 passes for location: London (51.5072 / 0.1276)

Sorry there are no passes over London.
QZS-1 (MICHIBIKI)